Weather History for KOTG - October, 2012

Change the Weather History Date:

Monday, October 1, 2012

  Actual Average Record
Temperature  
Mean Temperature 56 °F -  
Max Temperature 68 °F 62 °F 87 °F (2006)
Min Temperature 44 °F 41 °F 24 °F (2003)
Degree Days  
Heating Degree Days 9    
Growing Degree Days 6 (Base 50)    
Moisture  
Dew Point 34 °F    
Average Humidity 42    
Maximum Humidity 59    
Minimum Humidity 24    
Precipitation  
Precipitation 0.00 in - - ()
Sea Level Pressure  
Sea Level Pressure 29.94 in    
Wind  
Wind Speed 13 mph (NNW)    
Max Wind Speed 28 mph    
Max Gust Speed 33 mph    
Visibility 10 miles    
Events      
Averages and records for this station are not official NWS values.
T = Trace of Precipitation, MM = Missing Value Source: NWS Daily Summary

Daily Weather History Graph

Daily Weather History Graph

Search for Another Location

Airport or City:

Trip Planner

Search our weather history database for the weather conditions in past years. The results will help you decide how hot, cold, wet, or windy it might be!

Date:

Astronomy

Oct. 01, 2012 Rise Set
Actual Time 7:20 AM CDT 7:02 PM CDT
Civil Twilight 6:51 AM CDT 7:30 PM CDT
Nautical Twilight 6:18 AM CDT 8:04 PM CDT
Astronomical Twilight 5:44 AM CDT 8:37 PM CDT
Moon 7:34 PM CDT (10/1) 8:55 AM CDT (10/1)
Length of Visible Light 12h 39m
Length of Day
11h 41m
Full, 98% of the Moon is Illuminated
Oct 1
Full
Oct 8
Last Quarter
Oct 15
New
Oct 21
First Quarter
Oct 29
Full

Hourly Weather History & Observations

Time (CDT) Temp. Windchill Dew Point Humidity Pressure Visibility Wind Dir Wind Speed Gust Speed Precip Events Conditions
12:35 AM 51.8 °F - 33.8 °F 50% 29.89 in 10.0 mi WSW 4.6 mph - N/A   Clear
12:55 AM 53.6 °F - 35.6 °F 51% 29.89 in 10.0 mi WSW 5.8 mph - N/A   Clear
1:15 AM 55.4 °F - 35.6 °F 47% 29.88 in 10.0 mi WSW 6.9 mph - N/A   Clear
1:35 AM 55.4 °F - 35.6 °F 47% 29.88 in 10.0 mi WSW 6.9 mph - N/A   Clear
1:55 AM 53.6 °F - 33.8 °F 47% 29.89 in 10.0 mi West 10.4 mph - N/A   Clear
2:15 AM 55.4 °F - 33.8 °F 44% 29.88 in 10.0 mi West 8.1 mph - N/A   Clear
2:35 AM 51.8 °F - 33.8 °F 50% 29.88 in 10.0 mi West 6.9 mph - N/A   Clear
2:55 AM 51.8 °F - 33.8 °F 50% 29.89 in 10.0 mi NW 11.5 mph - N/A   Clear
3:15 AM 51.8 °F - 33.8 °F 50% 29.88 in 10.0 mi WNW 9.2 mph - N/A   Clear
3:35 AM 53.6 °F - 33.8 °F 47% 29.89 in 10.0 mi NW 11.5 mph - N/A   Clear
3:55 AM 57.2 °F - 37.4 °F 48% 29.89 in 10.0 mi NNW 12.7 mph - N/A   Clear
4:15 AM 57.2 °F - 39.2 °F 51% 29.89 in 10.0 mi NNW 11.5 mph - N/A   Clear
4:35 AM 59.0 °F - 42.8 °F 55% 29.89 in 10.0 mi NNW 15.0 mph - N/A   Clear
4:55 AM 60.8 °F - 42.8 °F 52% 29.89 in 10.0 mi NNW 15.0 mph - N/A   Clear
5:15 AM 60.8 °F - 42.8 °F 52% 29.90 in 10.0 mi NNW 15.0 mph - N/A   Clear
5:35 AM 60.8 °F - 42.8 °F 52% 29.90 in 10.0 mi NNW 13.8 mph - N/A   Clear
5:55 AM 59.0 °F - 42.8 °F 55% 29.91 in 10.0 mi NNW 13.8 mph - N/A   Clear
6:15 AM 59.0 °F - 42.8 °F 55% 29.91 in 10.0 mi NNW 12.7 mph - N/A   Clear
6:35 AM 57.2 °F - 42.8 °F 59% 29.91 in 10.0 mi NNW 10.4 mph - N/A   Clear
6:55 AM 57.2 °F - 42.8 °F 59% 29.92 in 10.0 mi NNW 13.8 mph - N/A   Clear
7:15 AM 57.2 °F - 42.8 °F 59% 29.93 in 10.0 mi NNW 15.0 mph 18.4 mph N/A   Clear
7:35 AM 57.2 °F - 42.8 °F 59% 29.93 in 10.0 mi NNW 17.3 mph - N/A   Clear
7:55 AM 57.2 °F - 42.8 °F 59% 29.94 in 10.0 mi NNW 17.3 mph 23.0 mph N/A   Clear
8:15 AM 57.2 °F - 42.8 °F 59% 29.95 in 10.0 mi North 15.0 mph 19.6 mph N/A   Partly Cloudy
8:35 AM 57.2 °F - 41.0 °F 55% 29.95 in 10.0 mi North 18.4 mph - N/A   Partly Cloudy
9:15 AM 57.2 °F - 39.2 °F 51% 29.96 in 10.0 mi North 21.9 mph 27.6 mph N/A   Scattered Clouds
9:35 AM 57.2 °F - 39.2 °F 51% 29.96 in 10.0 mi North 19.6 mph 27.6 mph N/A   Partly Cloudy
9:55 AM 59.0 °F - 39.2 °F 48% 29.97 in 10.0 mi North 17.3 mph - N/A   Mostly Cloudy
10:15 AM 57.2 °F - 39.2 °F 51% 29.98 in 10.0 mi NNW 17.3 mph 21.9 mph N/A   Scattered Clouds
10:35 AM - - - N/A% 29.98 in 10.0 mi North 20.7 mph 29.9 mph N/A   Clear
10:55 AM - - - N/A% 29.98 in 10.0 mi NNW 25.3 mph 32.2 mph N/A   Clear
11:15 AM 60.8 °F - 37.4 °F 42% 29.99 in 10.0 mi NNW 21.9 mph 29.9 mph N/A   Partly Cloudy
11:35 AM 64.4 °F - 37.4 °F 37% 29.99 in 10.0 mi NNW 26.5 mph 32.2 mph N/A   Clear
11:55 AM 64.4 °F - 35.6 °F 34% 29.99 in 10.0 mi NNW 25.3 mph 29.9 mph N/A   Clear
12:15 PM - - - N/A% 29.98 in 10.0 mi North 27.6 mph 32.2 mph N/A   Clear
12:35 PM 66.2 °F - 35.6 °F 32% 29.98 in 10.0 mi North 23.0 mph 29.9 mph N/A   Clear
1:15 PM 68.0 °F - 35.6 °F 30% 29.98 in 10.0 mi North 20.7 mph 29.9 mph N/A   Clear
1:35 PM 68.0 °F - 35.6 °F 30% 29.97 in 10.0 mi NNW 25.3 mph 33.4 mph N/A   Clear
1:55 PM 68.0 °F - 35.6 °F 30% 29.96 in 10.0 mi NNW 19.6 mph 33.4 mph N/A   Clear
2:15 PM 68.0 °F - 35.6 °F 30% 29.96 in 10.0 mi North 18.4 mph 28.8 mph N/A   Clear
2:55 PM 68.0 °F - 35.6 °F 30% 29.95 in 10.0 mi NNW 25.3 mph - N/A   Clear
3:15 PM 68.0 °F - 35.6 °F 30% 29.95 in 10.0 mi NNW 24.2 mph 31.1 mph N/A   Clear
3:35 PM 68.0 °F - 33.8 °F 28% 29.95 in 10.0 mi NNW 21.9 mph 29.9 mph N/A   Clear
4:15 PM 68.0 °F - 32.0 °F 26% 29.95 in 10.0 mi NNW 24.2 mph 29.9 mph N/A   Clear
4:35 PM 68.0 °F - 30.2 °F 24% 29.95 in 10.0 mi NNW 21.9 mph 31.1 mph N/A   Clear
4:55 PM 66.2 °F - 30.2 °F 26% 29.95 in 10.0 mi NNW 21.9 mph 28.8 mph N/A   Clear
5:15 PM 66.2 °F - 30.2 °F 26% 29.95 in 10.0 mi NNW 21.9 mph 27.6 mph N/A   Clear
5:35 PM 66.2 °F - 30.2 °F 26% 29.95 in 10.0 mi North 23.0 mph 27.6 mph N/A   Clear
5:55 PM 64.4 °F - 30.2 °F 28% 29.95 in 10.0 mi North 23.0 mph 27.6 mph N/A   Clear
6:15 PM 64.4 °F - 28.4 °F 26% 29.96 in 10.0 mi North 19.6 mph 24.2 mph N/A   Clear
6:35 PM 62.6 °F - 28.4 °F 27% 29.96 in 10.0 mi NNW 17.3 mph 24.2 mph N/A   Clear
6:55 PM 60.8 °F - 28.4 °F 29% 29.96 in 10.0 mi North 11.5 mph - N/A   Clear
7:15 PM 57.2 °F - 26.6 °F 31% 29.97 in 10.0 mi North 10.4 mph - N/A   Clear
7:35 PM 57.2 °F - 26.6 °F 31% 29.97 in 10.0 mi NNW 8.1 mph - N/A   Clear
7:55 PM 53.6 °F - 26.6 °F 35% 29.97 in 10.0 mi NNW 8.1 mph - N/A   Clear
8:15 PM 51.8 °F - 26.6 °F 38% 29.97 in 10.0 mi NNW 9.2 mph - N/A   Clear
8:35 PM 51.8 °F - 26.6 °F 38% 29.97 in 10.0 mi NNW 9.2 mph - N/A   Clear
8:55 PM 51.8 °F - 26.6 °F 38% 29.98 in 10.0 mi NW 8.1 mph - N/A   Clear
9:15 PM 48.2 °F - 24.8 °F 40% 29.98 in 10.0 mi NNW 9.2 mph - N/A   Clear
9:35 PM 48.2 °F - 24.8 °F 40% 29.98 in 10.0 mi NW 8.1 mph - N/A   Clear
9:55 PM 48.2 °F - 26.6 °F 43% 29.98 in 10.0 mi NW 9.2 mph - N/A   Clear
10:15 PM 48.2 °F - 24.8 °F 40% 29.98 in 10.0 mi NNW 8.1 mph - N/A   Clear
10:35 PM 46.4 °F 41.9 °F 24.8 °F 43% 29.98 in 10.0 mi NNW 9.2 mph - N/A   Clear
10:55 PM 46.4 °F 41.9 °F 24.8 °F 43% 29.98 in 10.0 mi NNW 9.2 mph - N/A   Clear
11:15 PM 46.4 °F 42.4 °F 24.8 °F 43% 29.99 in 10.0 mi NNW 8.1 mph - N/A   Clear
11:35 PM 44.6 °F 39.7 °F 24.8 °F 46% 29.99 in 10.0 mi NW 9.2 mph - N/A   Clear
11:55 PM 46.4 °F 41.9 °F 24.8 °F 43% 29.98 in 10.0 mi NW 9.2 mph - N/A   Clear